Regional Weather Roundup
Issued by NWS Cleveland, OH

Home | Current Version | Previous Version | Graphics & Text | Print | Product List | Glossary On
Versions: 1 2 3 4 5 6 7 8 9 10 11 12 13 14 15 16 17 18 19 20 21 22 23 24 25 26 27 28 29 30 31 32 33 34 35 36 37 38 39 40 41 42 43 44 45 46 47 48 49 50
000
ASUS41 KCLE 201312
RWRCLE
OHIO REGIONAL WEATHER ROUNDUP
NATIONAL WEATHER SERVICE WILMINGTON, OH
800 AM EST TUE FEB 20 2018

NOTE: "FAIR" INDICATES FEW OR NO CLOUDS BELOW 12,000 FEET WITH NO
SIGNIFICANT WEATHER AND/OR OBSTRUCTIONS TO VISIBILITY.

OHZ001>008-015>018-024>027-034-035-043-044-201400-
   NORTHWEST OHIO

CITY           SKY/WX    TMP DP  RH WIND       PRES   REMARKS
DEFIANCE       CLOUDY    60  56  86 S13       29.98S
FINDLAY        CLOUDY    63  54  72 S20G32    30.03R
TOLEDO EXPRESS MOCLDY    62  58  86 S14G24    29.98S
TOLEDO EXEC    MOCLDY    63  56  78 S16G23    30.01R
LIMA           FAIR      62  56  80 S18G30    30.04S
$$

OHZ009>014-019>023-028>033-038-089-201400-
   NORTHEAST OHIO

CITY           SKY/WX    TMP DP  RH WIND       PRES   REMARKS
CLE-HOPKINS    CLOUDY    64  55  72 S16       30.10R
CLE-LAKEFRONT  CLOUDY    65  54  67 S20G28    30.07R
CUY CO. ARPT   CLOUDY    64  55  72 S14       30.08R
LORAIN-ELYRIA  CLOUDY    64  52  64 SW14G23   30.08R
ASHTABULA      CLOUDY    62  55  77 SW15      30.10R
AKRON-CANTON   MOCLDY    61  53  75 S16       30.14R
WOOSTER        FAIR      59  54  83 S10       30.14R
MANSFIELD      FAIR      62  56  80 S25G32    30.11R
YOUNGSTOWN     CLOUDY    62  54  74 S13G21    30.14R
$$

OHZ042-051>053-060>062-070>072-077>081-201400-
  SOUTHWEST OHIO

CITY           SKY/WX    TMP DP  RH WIND       PRES   REMARKS
CINC-COVINGTON MOCLDY    64  58  80 S15       30.13R
CINC-LUNKEN    FAIR      63  57  81 S13       30.15R
HAMILTON       FAIR      64  57  78 S5        30.13R
DAYTON         MOCLDY    62  57  83 S18G24    30.10S
WRIGHT-PAT AFB MOCLDY    63  57  82 S15       30.11R
DAYTON GENERAL FAIR      63  55  75 S16G23    30.11R
WILMINGTON     FAIR      60  56  86 S16       30.14R
$$

OHZ036-037-039>041-045>050-054>059-063>069-073>076-082>088-201400-
  CENTRAL AND SOUTHEAST OHIO

CITY           SKY/WX    TMP DP  RH WIND       PRES   REMARKS
COLUMBUS       MOCLDY    65  56  72 S16G23    30.15R
OSU AIRPORT    FAIR      62  57  83 S14G23    30.13R
BOLTON FIELD   CLEAR     63  55  77 S16G22    30.15R
RICKENBACK AFB FAIR      63  57  80 S20G28    30.15R
NEWARK         FAIR      61  54  77 S7        30.16R
MARION         FAIR      60  54  80 S18       30.11R
LANCASTER      FAIR      62  54  74 S12       30.17S
ZANESVILLE     FAIR      62  52  69 S14       30.19R
NEW PHILLY     FAIR      63  53  70 S10G17    30.18R
$$



USA.gov is the U.S. government's official web portal to all federal, state and local government web resources and services.